Flag for Germany Weather past 2 weeks in Karlsruhe, Baden-Württemberg, Germany

50 °F


Feels Like: 50 °F
Forecast: 46 / 69 °F
Wind: 2 mph from Northwest

Location: Karlsruhe - Baden Wurttemberg

Current Time: Oct 5, 2015 at 12:15:43 AM

Latest Report: Oct 4, 2015 at 11:20 PM

Visibility: 10 mi

Pressure: 30.01 "Hg

Humidity: 94%

Dew point: 48 °F

Location of KarlsruheLocation

Historic Weather in Karlsruhe — Graph


Karlsruhe temperature yesterday

Maximum temperature yesterday: 66 °F (at 5:50 PM)
Minimum temperature yesterday: 50 °F (at 10:20 PM)
Average temperature yesterday: 58 °F

Past Weeks' High & Low Weather Summary

High72 °F (Oct 3, 3:50 PM)100% (Sep 21, 5:20 AM)30.51 "Hg (Sep 21, 5:20 AM)
Low41 °F (Sep 21, 5:20 AM)28% (Sep 28, 5:20 PM)29.62 "Hg (Sep 22, 5:50 PM)
Average56 °F65%30.17 "Hg
* Reported Sep 19 10:20 PM — Oct 4 10:20 PM, Karlsruhe, Weather by CustomWeather, © 2015

Note: Actual official high and low records may vary slightly from our data, if they occured in-between our weather recording intervals... More about our weather records


Karlsruhe weather history for previous 24 hours

Time TempWeatherWind HumidityBarometerVisibility
10:20 PM
Sun, Oct 4
50 °FClear.No wind94%30.01 "Hg10 mi
9:50 PM52 °FClear.2 mph94%30.04 "Hg10 mi
9:20 PM52 °FClear.5 mph94%30.04 "Hg10 mi
8:50 PM52 °FClear.5 mph94%30.04 "Hg10 mi
8:20 PM54 °FClear.3 mph88%30.04 "Hg10 mi
7:50 PM54 °FSunny.6 mph88%30.04 "Hg10 mi
7:20 PM55 °FSunny.6 mph82%30.04 "Hg10 mi
6:50 PM59 °FSunny.5 mph72%30.04 "Hg10 mi
6:20 PM63 °FSunny.3 mph64%30.04 "Hg10 mi
5:50 PM66 °FSunny.No wind46%30.04 "Hg10 mi
5:20 PM64 °FPassing clouds.5 mph49%30.04 "HgN/A
4:50 PM64 °FPassing clouds.5 mph52%30.04 "HgN/A
4:20 PM64 °FSunny.1 mph52%30.04 "Hg10 mi
3:50 PM64 °FBroken clouds.5 mph60%30.07 "HgN/A
3:20 PM63 °FBroken clouds.5 mph59%30.07 "HgN/A
2:50 PM63 °FBroken clouds.7 mph59%30.07 "HgN/A
2:20 PM63 °FBroken clouds.9 mph64%30.07 "HgN/A
1:50 PM63 °FBroken clouds.9 mph64%30.09 "HgN/A
1:20 PM61 °FBroken clouds.10 mph68%30.09 "HgN/A
12:50 PM61 °FScattered clouds.12 mph68%30.09 "HgN/A
12:20 PM61 °FPartly sunny.14 mph68%30.09 "HgN/A
11:50 AM59 °FScattered clouds.15 mph82%30.09 "HgN/A
11:20 AM59 °FScattered clouds.13 mph82%30.09 "HgN/A
10:50 AM57 °FScattered clouds.7 mph88%30.09 "HgN/A
10:20 AM55 °FScattered clouds.5 mph88%30.09 "HgN/A
9:50 AM55 °FLight rain. Partly sunny.7 mph88%30.09 "HgN/A
9:20 AM55 °FLight rain. Partly sunny.10 mph88%30.09 "HgN/A
8:50 AM55 °FBroken clouds.8 mph88%30.07 "HgN/A
8:20 AM55 °FLight rain. Partly cloudy.5 mph88%30.07 "HgN/A
7:50 AM55 °FLight rain. Partly cloudy.5 mph88%30.07 "HgN/A
7:20 AM55 °FLight rain. Partly cloudy.8 mph88%30.07 "Hg6 mi
6:50 AM55 °FRain. Partly cloudy.9 mph88%30.07 "Hg4 mi
6:20 AM55 °FRain. Partly cloudy.7 mph88%30.07 "Hg3 mi
5:50 AM55 °FRain. Partly cloudy.7 mph88%30.04 "Hg3 mi
5:20 AM54 °FRain. Passing clouds.6 mph94%30.04 "Hg4 mi
4:50 AM54 °FRain. Passing clouds.6 mph94%30.01 "Hg4 mi
4:20 AM55 °FRain. Passing clouds.8 mph88%30.01 "Hg4 mi
1:20 AM54 °FClear.1 mph88%29.98 "Hg10 mi
12:50 AM54 °FClear.1 mph88%29.98 "Hg10 mi
Weather by CustomWeather, © 2015

See weather overviewHow to use our weather pages